Regional Weather Roundup
Issued by NWS

Home | Current Version | Previous Version | Graphics & Text | Print | Product List | Glossary On
Versions: 1 2 3 4 5 6 7 8 9 10 11 12 13 14 15 16 17 18 19 20 21 22 23 24 25 26 27 28 29 30 31 32 33 34 35 36 37 38 39 40 41 42 43 44 45 46 47 48 49 50
000
ASUS45 KCYS 251010
RWRWY

WYOMING REGIONAL WEATHER ROUNDUP
NATIONAL WEATHER SERVICE CHEYENNE WY
300 AM MST SUN JAN 25 2015

NOTE:  "FAIR" INDICATES FEW OR NO CLOUDS BELOW 12,000 FEET
WITH NO SIGNIFICANT WEATHER AND/OR OBSTRUCTIONS TO VISIBILITY.

WYZ001-251100-
YELLOWSTONE NATIONAL PARK

CITY           SKY/WX    TMP DP  RH WIND       PRES   REMARKS
LK YELLOWSTONE   N/A     22  20  92 CALM      30.37R
W YELLOWSTONE  NOT AVBL

$$
WYZ002>013-054>058-071-098>099-251100-
NORTHERN WYOMING

CITY           SKY/WX    TMP DP  RH WIND       PRES   REMARKS
JACKSON        CLOUDY    23  23 100 NE3       30.38R
CODY           FAIR      46  27  46 W15       30.13F
GREYBULL       CLOUDY    20  19  96 CALM      30.18R
WORLAND        FAIR      12  10  92 CALM      30.17R
SHERIDAN       MOCLDY    33  28  81 SW3       30.11S
BUFFALO        FAIR      35  28  75 CALM      30.11S
GILLETTE       FAIR      30  24  78 CALM      30.09F
HULETT           N/A    N/A N/A N/A MISG        N/A
NEWCASTLE      FAIR      30  23  74 NW14      30.09F WCI  20

$$
WYZ014>020-022>026-101>103-251100-
CENTRAL WYOMING

CITY           SKY/WX    TMP DP  RH WIND       PRES   REMARKS
BIG PINEY      FAIR      17  14  88 CALM      30.33R
PINEDALE       PTSUNNY   28  27  93 W7        30.31S WCI  21
DUBOIS         CLOUDY    37  28  70 NW23G35   30.25R WCI  26
LANDER         FAIR      30  21  69 SE6       30.15F WCI  24
RIVERTON       FAIR      28  21  75 W7        30.17F WCI  21
CASPER         FAIR      31  24  75 SW14      30.15S WCI  21
DOUGLAS        FAIR      26  24  92 W5        30.14S WCI  20

$$
WYZ021-027>030-104>119-251100-
SOUTHERN WYOMING

CITY           SKY/WX    TMP DP  RH WIND       PRES   REMARKS
EVANSTON       MOCLDY    29  26  89 SW12      30.42S WCI  19
KEMMERER       CLOUDY    32  30  93 W6        30.37F WCI  26
FORT BRIDGER   FAIR      33  31  94 W21G31    30.39F WCI  20
ROCK SPRINGS   FAIR      31  26  82 SW24      30.31F WCI  17
DIXON          CLOUDY    29  23  79 CALM      30.36S
RAWLINS        FAIR      28  24  85 W18G26    30.24R WCI  15
SARATOGA       FAIR      30  27  86 MISG      30.27S
LARAMIE        FAIR      28  20  71 NW12      30.16R WCI  18
CHEYENNE       FAIR      36  25  64 NW18G25   30.12R WCI  26
TORRINGTON     CLOUDY    35  24  64 W6        30.12R WCI  30
PINE BLUFFS    FAIR      28  27  93 N7        30.13S WCI  21

$$


USA.gov is the U.S. government's official web portal to all federal, state and local government web resources and services.